QPF
0.00 0.00 0.00 0.00 0.00 0.00 0.00 0.00 0.00 0.00 0.00 0.00 0.00 0.00 0.00 0.00 0.00 0.00 0.01 0.01 0.01 0.01 0.01 0.00 0.00 0.00 0.00 0.00 0.00 0.00 0.00 0.00 0.00 0.01 0.00 0.00 0.00 0.00 0.01 0.01 0.00 0.00 0.00
0.00 0.00 0.00 0.00 0.00 0.00 0.00 0.00 0.00 0.00 0.00 0.00 0.00 0.00 0.00 0.00 0.00 0.00 0.00 0.01 0.00 0.00 0.00 0.00 0.00 0.00 0.00 0.00 0.00 0.00 0.00 0.00 0.00 0.00 0.00 0.00 0.00 0.00 0.00 0.00 0.00 0.01 0.01
0.00 0.00 0.00 0.00 0.00 0.00 0.00 0.00 0.00 0.00 0.00 0.00 0.00 0.00 0.00 0.00 0.00 0.00 0.00 0.00 0.00 0.00 0.00 0.00 0.00 0.00 0.00 0.00 0.00 0.00 0.00 0.00 0.00 0.00 0.00 0.00 0.00 0.00 0.00 0.00 0.00 0.00 0.01
0.00 0.00 0.00 0.00 0.00 0.00 0.00 0.00 0.00 0.00 0.00 0.00 0.00 0.00 0.00 0.00 0.00 0.00 0.00 0.00 0.00 0.00 0.00 0.00 0.00 0.00 0.00 0.00 0.00 0.00 0.00 0.00 0.00 0.00 0.00 0.01 0.00 0.00 0.00 0.00 0.00 0.00 0.00
0.00 0.00 0.00 0.00 0.00 0.00 0.00 0.00 0.00 0.00 0.00 0.00 0.00 0.00 0.00 0.00 0.00 0.00 0.00 0.00 0.00 0.00 0.00 0.00 0.00 0.00 0.00 0.00 0.00 0.00 0.00 0.00 0.00 0.00 0.00 0.00 0.00 0.01 0.01 0.00 0.00 0.00 0.00
0.00 0.00 0.00 0.00 0.00 0.00 0.00 0.00 0.00 0.00 0.00 0.00 0.00 0.01 0.01 0.00 0.00 0.00 0.00 0.00 0.00 0.00 0.00 0.00 0.00 0.00 0.00 0.00 0.00 0.00 0.00 0.00 0.00 0.00 0.00 0.00 0.00 0.02 0.02 0.01 0.00 0.00 0.00
0.00 0.00 0.00 0.00 0.00 0.00 0.00 0.00 0.00 0.00 0.00 0.00 0.01 0.01 0.01 0.00 0.00 0.00 0.00 0.00 0.00 0.00 0.00 0.00 0.00 0.00 0.00 0.00 0.00 0.00 0.00 0.00 0.00 0.00 0.00 0.00 0.00 0.01 0.02 0.01 0.01 0.01 0.01
0.00 0.00 0.00 0.00 0.00 0.00 0.00 0.00 0.00 0.00 0.00 0.00 0.01 0.01 0.01 0.00 0.00 0.00 0.00 0.00 0.00 0.00 0.00 0.00 0.00 0.00 0.00 0.00 0.00 0.00 0.00 0.00 0.00 0.00 0.00 0.00 0.00 0.00 0.01 0.01 0.01 0.01 0.01
0.00 0.00 0.00 0.00 0.00 0.00 0.00 0.00 0.00 0.00 0.00 0.00 0.01 0.01 0.01 0.00 0.00 0.00 0.00 0.00 0.00 0.00 0.00 0.00 0.00 0.00 0.00 0.00 0.00 0.00 0.00 0.00 0.00 0.00 0.00 0.00 0.00 0.00 0.00 0.00 0.00 0.00 0.00
0.00 0.00 0.00 0.00 0.00 0.00 0.00 0.00 0.00 0.00 0.00 0.00 0.01 0.01 0.01 0.00 0.00 0.00 0.00 0.00 0.00 0.00 0.00 0.00 0.00 0.00 0.00 0.00 0.00 0.00 0.00 0.00 0.00 0.00 0.00 0.00 0.00 0.00 0.00 0.00 0.00 0.00 0.00
0.00 0.00 0.00 0.00 0.00 0.00 0.00 0.00 0.00 0.00 0.00 0.00 0.01 0.01 0.00 0.00 0.00 0.00 0.00 0.00 0.00 0.00 0.00 0.00 0.00 0.00 0.00 0.00 0.00 0.00 0.00 0.00 0.00 0.00 0.00 0.00 0.00 0.00 0.00 0.00 0.00 0.00 0.00
0.00 0.00 0.00 0.00 0.00 0.00 0.00 0.00 0.00 0.00 0.00 0.00 0.00 0.01 0.01 0.00 0.00 0.00 0.00 0.00 0.00 0.00 0.00 0.00 0.00 0.00 0.00 0.00 0.00 0.00 0.00 0.00 0.00 0.00 0.00 0.00 0.00 0.00 0.00 0.00 0.00 0.00 0.00
0.00 0.00 0.00 0.00 0.00 0.00 0.00 0.00 0.00 0.00 0.00 0.00 0.00 0.00 0.00 0.00 0.00 0.00 0.00 0.00 0.00 0.00 0.00 0.00 0.00 0.00 0.00 0.00 0.00 0.00 0.00 0.00 0.00 0.00 0.00 0.00 0.00 0.00 0.00 0.00 0.00 0.00 0.00
0.00 0.00 0.00 0.00 0.00 0.00 0.00 0.00 0.00 0.00 0.00 0.00 0.00 0.00 0.01 0.00 0.00 0.00 0.00 0.00 0.00 0.00 0.00 0.00 0.00 0.00 0.00 0.00 0.00 0.00 0.00 0.00 0.00 0.00 0.00 0.00 0.00 0.00 0.00 0.00 0.00 0.00 0.00
0.00 0.00 0.00 0.00 0.00 0.00 0.00 0.00 0.00 0.00 0.00 0.00 0.00 0.00 0.00 0.00 0.00 0.00 0.00 0.00 0.00 0.00 0.00 0.00 0.00 0.00 0.00 0.00 0.00 0.00 0.00 0.00 0.00 0.00 0.00 0.00 0.00 0.00 0.00 0.00 0.00 0.00 0.00
0.00 0.00 0.00 0.00 0.00 0.00 0.00 0.00 0.00 0.00 0.00 0.00 0.01 0.01 0.01 0.01 0.00 0.00 0.00 0.00 0.00 0.00 0.00 0.00 0.00 0.00 0.00 0.00 0.00 0.00 0.00 0.00 0.00 0.00 0.00 0.00 0.00 0.00 0.00 0.00 0.00 0.00 0.00
0.00 0.00 0.00 0.00 0.00 0.00 0.00 0.00 0.00 0.00 0.00 0.00 0.01 0.01 0.01 0.01 0.01 0.00 0.00 0.00 0.00 0.00 0.00 0.00 0.00 0.00 0.00 0.00 0.00 0.00 0.00 0.00 0.00 0.00 0.00 0.00 0.00 0.00 0.00 0.00 0.00 0.00 0.00
0.00 0.00 0.00 0.00 0.00 0.00 0.00 0.00 0.00 0.00 0.00 0.00 0.00 0.01 0.01 0.01 0.01 0.01 0.00 0.00 0.00 0.00 0.00 0.00 0.00 0.00 0.00 0.00 0.00 0.00 0.00 0.00 0.00 0.00 0.00 0.00 0.00 0.00 0.00 0.00 0.00 0.00 0.00
0.00 0.00 0.00 0.00 0.00 0.00 0.00 0.00 0.00 0.00 0.00 0.00 0.00 0.01 0.01 0.01 0.01 0.01 0.01 0.00 0.00 0.00 0.00 0.00 0.00 0.00 0.00 0.00 0.00 0.00 0.00 0.00 0.00 0.00 0.00 0.00 0.00 0.00 0.00 0.00 0.00 0.00 0.00
0.00 0.00 0.00 0.00 0.00 0.00 0.00 0.00 0.00 0.00 0.00 0.00 0.00 0.00 0.01 0.01 0.01 0.01 0.00 0.00 0.00 0.00 0.00 0.00 0.00 0.00 0.00 0.00 0.00 0.00 0.00 0.00 0.00 0.00 0.00 0.00 0.00 0.00 0.00 0.00 0.00 0.00 0.00
0.00 0.00 0.00 0.00 0.00 0.00 0.00 0.00 0.00 0.00 0.00 0.00 0.00 0.00 0.00 0.01 0.01 0.01 0.01 0.00 0.00 0.00 0.00 0.00 0.00 0.00 0.00 0.00 0.00 0.00 0.00 0.00 0.00 0.00 0.00 0.00 0.00 0.00 0.00 0.00 0.00 0.00 0.00
0.00 0.00 0.00 0.00 0.00 0.00 0.00 0.00 0.00 0.00 0.00 0.00 0.00 0.00 0.00 0.00 0.00 0.01 0.01 0.01 0.00 0.00 0.00 0.00 0.00 0.00 0.00 0.00 0.00 0.00 0.00 0.00 0.00 0.00 0.00 0.00 0.00 0.00 0.00 0.00 0.00 0.00 0.00
0.00 0.00 0.00 0.00 0.00 0.00 0.00 0.00 0.00 0.00 0.00 0.00 0.00 0.00 0.00 0.00 0.00 0.00 0.00 0.01 0.01 0.00 0.00 0.00 0.00 0.00 0.00 0.00 0.00 0.00 0.00 0.00 0.00 0.00 0.00 0.00 0.00 0.00 0.00 0.00 0.00 0.00 0.00
0.00 0.00 0.00 0.00 0.00 0.00 0.00 0.00 0.00 0.00 0.00 0.00 0.00 0.00 0.00 0.00 0.00 0.00 0.00 0.00 0.00 0.00 0.00 0.00 0.00 0.00 0.00 0.00 0.00 0.00 0.00 0.00 0.00 0.00 0.00 0.00 0.00 0.00 0.00 0.00 0.00 0.00 0.00
0.00 0.00 0.00 0.00 0.00 0.00 0.00 0.00 0.00 0.00 0.00 0.00 0.00 0.00 0.00 0.00 0.00 0.00 0.00 0.00 0.00 0.00 0.00 0.00 0.00 0.00 0.00 0.00 0.00 0.00 0.00 0.00 0.00 0.00 0.00 0.00 0.00 0.00 0.00 0.00 0.00 0.00 0.00
0.00 0.00 0.00 0.00 0.00 0.00 0.00 0.00 0.00 0.00 0.00 0.00 0.00 0.00 0.00 0.00 0.00 0.00 0.00 0.00 0.00 0.00 0.00 0.00 0.00 0.00 0.00 0.00 0.00 0.00 0.00 0.00 0.00 0.00 0.00 0.00 0.00 0.00 0.00 0.00 0.00 0.00 0.00
MSLP
1016.63 1016.40 1016.32 1016.39 1016.59 1016.88 1017.19 1017.47 1017.68 1017.80 1017.85 1017.86 1017.88 1017.93 1018.03 1018.20 1018.41 1018.62 1018.82 1018.97 1019.08 1019.16 1019.21 1019.27 1019.34 1019.42 1019.50 1019.56 1019.58 1019.54 1019.46 1019.33 1019.19 1019.07 1018.98 1018.94 1018.95 1018.98 1019.02 1019.04 1019.02 1018.97 1018.88
1016.23 1016.07 1016.07 1016.21 1016.47 1016.80 1017.15 1017.45 1017.68 1017.82 1017.90 1017.96 1018.03 1018.14 1018.31 1018.53 1018.78 1019.01 1019.20 1019.35 1019.44 1019.50 1019.55 1019.60 1019.67 1019.76 1019.84 1019.89 1019.90 1019.85 1019.75 1019.61 1019.46 1019.33 1019.25 1019.21 1019.23 1019.26 1019.30 1019.32 1019.30 1019.24 1019.16
1015.85 1015.76 1015.82 1016.03 1016.35 1016.72 1017.09 1017.42 1017.67 1017.85 1017.97 1018.07 1018.20 1018.37 1018.59 1018.85 1019.12 1019.36 1019.55 1019.67 1019.75 1019.79 1019.82 1019.87 1019.94 1020.02 1020.10 1020.15 1020.15 1020.08 1019.97 1019.83 1019.69 1019.57 1019.50 1019.48 1019.51 1019.55 1019.59 1019.61 1019.59 1019.54 1019.46
1015.56 1015.53 1015.65 1015.91 1016.26 1016.67 1017.07 1017.41 1017.68 1017.88 1018.03 1018.18 1018.35 1018.56 1018.82 1019.10 1019.37 1019.61 1019.79 1019.90 1019.96 1020.00 1020.03 1020.07 1020.14 1020.22 1020.30 1020.34 1020.33 1020.26 1020.15 1020.01 1019.89 1019.79 1019.74 1019.74 1019.78 1019.84 1019.88 1019.91 1019.89 1019.84 1019.78
1015.38 1015.40 1015.56 1015.86 1016.24 1016.67 1017.07 1017.42 1017.70 1017.91 1018.08 1018.24 1018.43 1018.67 1018.94 1019.23 1019.51 1019.75 1019.92 1020.03 1020.09 1020.13 1020.17 1020.23 1020.30 1020.39 1020.46 1020.50 1020.48 1020.42 1020.31 1020.19 1020.08 1020.01 1019.98 1020.00 1020.05 1020.11 1020.16 1020.18 1020.17 1020.14 1020.10
1015.31 1015.37 1015.57 1015.89 1016.28 1016.71 1017.11 1017.45 1017.72 1017.92 1018.09 1018.25 1018.45 1018.69 1018.96 1019.26 1019.53 1019.76 1019.94 1020.06 1020.14 1020.21 1020.27 1020.35 1020.45 1020.55 1020.63 1020.66 1020.65 1020.59 1020.49 1020.38 1020.29 1020.24 1020.23 1020.26 1020.32 1020.37 1020.42 1020.43 1020.43 1020.41 1020.39
1015.31 1015.40 1015.61 1015.95 1016.35 1016.77 1017.15 1017.47 1017.71 1017.90 1018.06 1018.22 1018.41 1018.64 1018.91 1019.20 1019.47 1019.71 1019.90 1020.05 1020.16 1020.26 1020.37 1020.49 1020.62 1020.73 1020.82 1020.87 1020.86 1020.80 1020.71 1020.62 1020.55 1020.51 1020.51 1020.54 1020.58 1020.63 1020.66 1020.66 1020.65 1020.64 1020.64
1015.34 1015.43 1015.66 1016.00 1016.39 1016.80 1017.16 1017.46 1017.68 1017.85 1018.00 1018.15 1018.34 1018.57 1018.83 1019.12 1019.40 1019.64 1019.86 1020.03 1020.19 1020.34 1020.49 1020.65 1020.81 1020.95 1021.06 1021.11 1021.11 1021.07 1020.99 1020.91 1020.85 1020.82 1020.82 1020.83 1020.86 1020.88 1020.88 1020.87 1020.85 1020.84 1020.85
1015.34 1015.44 1015.67 1016.00 1016.38 1016.77 1017.12 1017.40 1017.61 1017.78 1017.92 1018.08 1018.28 1018.51 1018.79 1019.07 1019.36 1019.62 1019.85 1020.06 1020.25 1020.45 1020.64 1020.84 1021.03 1021.20 1021.32 1021.39 1021.40 1021.37 1021.31 1021.24 1021.19 1021.15 1021.14 1021.15 1021.14 1021.13 1021.10 1021.06 1021.02 1021.01 1021.02
1015.32 1015.41 1015.62 1015.94 1016.31 1016.67 1017.00 1017.27 1017.49 1017.67 1017.83 1018.02 1018.24 1018.50 1018.79 1019.09 1019.38 1019.66 1019.91 1020.14 1020.36 1020.58 1020.81 1021.03 1021.25 1021.43 1021.58 1021.66 1021.69 1021.67 1021.62 1021.57 1021.52 1021.49 1021.47 1021.45 1021.41 1021.37 1021.30 1021.23 1021.17 1021.15 1021.16
1015.30 1015.36 1015.55 1015.83 1016.16 1016.50 1016.81 1017.08 1017.31 1017.51 1017.72 1017.95 1018.21 1018.51 1018.83 1019.15 1019.46 1019.74 1020.00 1020.25 1020.49 1020.72 1020.97 1021.21 1021.44 1021.64 1021.79 1021.89 1021.93 1021.93 1021.90 1021.86 1021.82 1021.79 1021.75 1021.71 1021.65 1021.57 1021.48 1021.38 1021.30 1021.26 1021.27
1015.34 1015.35 1015.49 1015.71 1015.98 1016.27 1016.55 1016.81 1017.06 1017.30 1017.55 1017.84 1018.16 1018.50 1018.86 1019.21 1019.53 1019.83 1020.10 1020.35 1020.59 1020.84 1021.09 1021.34 1021.58 1021.79 1021.95 1022.05 1022.11 1022.12 1022.11 1022.08 1022.05 1022.01 1021.97 1021.91 1021.83 1021.72 1021.61 1021.49 1021.40 1021.36 1021.37
1015.49 1015.44 1015.48 1015.61 1015.80 1016.01 1016.24 1016.48 1016.73 1017.00 1017.31 1017.65 1018.03 1018.43 1018.82 1019.20 1019.55 1019.86 1020.14 1020.40 1020.65 1020.91 1021.16 1021.42 1021.66 1021.88 1022.04 1022.16 1022.23 1022.25 1022.25 1022.22 1022.19 1022.15 1022.09 1022.02 1021.92 1021.80 1021.68 1021.56 1021.47 1021.42 1021.43
1015.80 1015.65 1015.58 1015.58 1015.65 1015.76 1015.92 1016.11 1016.36 1016.65 1016.99 1017.38 1017.81 1018.24 1018.67 1019.08 1019.45 1019.78 1020.08 1020.36 1020.63 1020.90 1021.18 1021.45 1021.71 1021.93 1022.11 1022.23 1022.31 1022.33 1022.33 1022.30 1022.25 1022.20 1022.13 1022.04 1021.94 1021.81 1021.69 1021.57 1021.49 1021.46 1021.48
1016.30 1016.02 1015.79 1015.65 1015.57 1015.56 1015.63 1015.77 1015.98 1016.27 1016.63 1017.05 1017.49 1017.95 1018.41 1018.83 1019.22 1019.58 1019.90 1020.22 1020.53 1020.84 1021.15 1021.46 1021.74 1021.99 1022.18 1022.31 1022.38 1022.40 1022.39 1022.34 1022.27 1022.20 1022.11 1022.01 1021.89 1021.77 1021.65 1021.55 1021.48 1021.47 1021.50
1016.95 1016.53 1016.15 1015.83 1015.60 1015.47 1015.44 1015.51 1015.69 1015.96 1016.31 1016.72 1017.16 1017.61 1018.06 1018.48 1018.88 1019.26 1019.63 1019.99 1020.35 1020.73 1021.10 1021.47 1021.79 1022.07 1022.29 1022.43 1022.50 1022.51 1022.47 1022.39 1022.30 1022.19 1022.07 1021.95 1021.83 1021.71 1021.60 1021.52 1021.47 1021.47 1021.51
1017.73 1017.16 1016.63 1016.16 1015.79 1015.55 1015.43 1015.45 1015.58 1015.81 1016.13 1016.50 1016.90 1017.32 1017.72 1018.12 1018.52 1018.91 1019.31 1019.72 1020.16 1020.61 1021.05 1021.48 1021.87 1022.20 1022.44 1022.59 1022.66 1022.66 1022.60 1022.49 1022.36 1022.21 1022.07 1021.92 1021.79 1021.66 1021.56 1021.50 1021.47 1021.48 1021.53
1018.57 1017.88 1017.22 1016.63 1016.17 1015.85 1015.68 1015.65 1015.75 1015.94 1016.21 1016.51 1016.84 1017.18 1017.51 1017.85 1018.21 1018.59 1019.01 1019.47 1019.97 1020.49 1021.02 1021.52 1021.97 1022.34 1022.61 1022.79 1022.87 1022.85 1022.77 1022.64 1022.47 1022.30 1022.12 1021.95 1021.80 1021.67 1021.57 1021.51 1021.49 1021.51 1021.57
1019.43 1018.66 1017.91 1017.27 1016.76 1016.42 1016.24 1016.20 1016.27 1016.43 1016.63 1016.85 1017.07 1017.30 1017.53 1017.78 1018.06 1018.41 1018.82 1019.30 1019.83 1020.40 1020.99 1021.54 1022.04 1022.46 1022.77 1022.97 1023.06 1023.05 1022.96 1022.82 1022.63 1022.43 1022.23 1022.04 1021.87 1021.74 1021.63 1021.57 1021.55 1021.57 1021.63
1020.28 1019.47 1018.71 1018.07 1017.58 1017.26 1017.11 1017.09 1017.16 1017.28 1017.41 1017.54 1017.64 1017.73 1017.83 1017.96 1018.14 1018.41 1018.78 1019.24 1019.77 1020.36 1020.96 1021.54 1022.07 1022.51 1022.84 1023.07 1023.17 1023.18 1023.11 1022.97 1022.79 1022.59 1022.38 1022.18 1022.00 1021.85 1021.73 1021.66 1021.63 1021.64 1021.68
1021.12 1020.33 1019.61 1019.02 1018.60 1018.36 1018.26 1018.28 1018.37 1018.46 1018.53 1018.55 1018.53 1018.48 1018.43 1018.42 1018.49 1018.65 1018.94 1019.33 1019.81 1020.36 1020.94 1021.50 1022.01 1022.45 1022.79 1023.03 1023.17 1023.20 1023.16 1023.06 1022.90 1022.71 1022.51 1022.31 1022.12 1021.96 1021.83 1021.74 1021.69 1021.68 1021.71
1021.95 1021.23 1020.59 1020.10 1019.78 1019.63 1019.62 1019.69 1019.79 1019.87 1019.88 1019.81 1019.67 1019.48 1019.30 1019.15 1019.09 1019.13 1019.30 1019.59 1019.98 1020.44 1020.93 1021.43 1021.88 1022.28 1022.61 1022.85 1023.00 1023.08 1023.08 1023.02 1022.91 1022.76 1022.58 1022.40 1022.21 1022.03 1021.89 1021.77 1021.70 1021.67 1021.67
1022.77 1022.15 1021.63 1021.26 1021.05 1021.00 1021.07 1021.19 1021.30 1021.35 1021.32 1021.17 1020.94 1020.65 1020.35 1020.09 1019.91 1019.83 1019.88 1020.04 1020.30 1020.62 1020.99 1021.36 1021.71 1022.03 1022.31 1022.53 1022.69 1022.80 1022.86 1022.85 1022.80 1022.69 1022.55 1022.38 1022.20 1022.01 1021.84 1021.70 1021.60 1021.55 1021.53
1023.60 1023.10 1022.70 1022.44 1022.34 1022.37 1022.48 1022.63 1022.74 1022.78 1022.70 1022.51 1022.22 1021.87 1021.50 1021.16 1020.89 1020.72 1020.64 1020.67 1020.77 1020.94 1021.14 1021.35 1021.57 1021.78 1021.97 1022.15 1022.30 1022.43 1022.52 1022.57 1022.57 1022.51 1022.40 1022.25 1022.07 1021.87 1021.67 1021.51 1021.37 1021.29 1021.26
1024.41 1024.04 1023.76 1023.59 1023.56 1023.63 1023.77 1023.91 1024.01 1024.02 1023.92 1023.71 1023.40 1023.03 1022.65 1022.28 1021.97 1021.72 1021.55 1021.45 1021.41 1021.40 1021.42 1021.47 1021.52 1021.59 1021.68 1021.79 1021.91 1022.03 1022.14 1022.22 1022.25 1022.23 1022.14 1022.00 1021.82 1021.60 1021.38 1021.18 1021.01 1020.90 1020.86
1025.19 1024.93 1024.74 1024.65 1024.65 1024.74 1024.86 1024.98 1025.05 1025.03 1024.92 1024.71 1024.42 1024.07 1023.72 1023.37 1023.06 1022.78 1022.55 1022.35 1022.17 1022.01 1021.86 1021.73 1021.62 1021.54 1021.51 1021.53 1021.59 1021.67 1021.77 1021.85 1021.90 1021.89 1021.81 1021.66 1021.46 1021.23 1020.98 1020.74 1020.54 1020.41 1020.34
Thickness
5726 5726 5724 5721 5718 5716 5715 5713 5713 5712 5712 5712 5712 5712 5712 5712 5711 5711 5710 5710 5709 5709 5709 5708 5709 5709 5710 5711 5713 5714 5715 5716 5717 5718 5718 5719 5719 5720 5720 5720 5721 5721 5722
5733 5729 5725 5722 5720 5717 5715 5713 5712 5711 5710 5710 5709 5709 5709 5709 5708 5708 5707 5707 5707 5706 5706 5706 5706 5706 5707 5708 5709 5710 5711 5712 5713 5713 5714 5715 5716 5716 5717 5717 5717 5718 5719
5734 5730 5726 5723 5721 5718 5716 5714 5712 5710 5709 5708 5707 5707 5706 5706 5706 5705 5705 5704 5703 5703 5703 5703 5703 5704 5704 5705 5706 5707 5708 5709 5709 5710 5711 5711 5712 5713 5713 5713 5714 5714 5715
5736 5731 5727 5724 5722 5719 5717 5715 5713 5711 5709 5708 5706 5705 5704 5704 5703 5703 5702 5701 5700 5700 5700 5700 5700 5700 5701 5702 5703 5704 5705 5706 5706 5708 5708 5708 5709 5710 5710 5710 5710 5710 5710
5736 5732 5728 5725 5722 5719 5717 5715 5713 5711 5709 5708 5706 5705 5703 5702 5701 5700 5699 5699 5698 5697 5697 5696 5696 5697 5697 5698 5699 5701 5702 5703 5704 5705 5705 5705 5705 5706 5706 5706 5705 5706 5706
5736 5732 5729 5725 5722 5718 5716 5714 5712 5710 5708 5707 5705 5704 5702 5701 5699 5698 5697 5696 5695 5694 5694 5693 5693 5693 5693 5694 5695 5696 5698 5699 5700 5700 5700 5700 5701 5701 5701 5701 5701 5701 5701
5735 5732 5729 5725 5722 5719 5716 5713 5711 5709 5707 5705 5703 5702 5701 5699 5697 5696 5694 5693 5692 5691 5691 5690 5689 5689 5689 5690 5691 5692 5693 5695 5695 5695 5695 5696 5696 5696 5696 5696 5696 5696 5696
5733 5730 5728 5725 5722 5719 5716 5713 5710 5708 5706 5704 5702 5700 5699 5697 5695 5693 5691 5690 5689 5688 5687 5687 5686 5685 5685 5686 5686 5687 5689 5690 5690 5690 5690 5690 5691 5691 5691 5691 5691 5691 5691
5730 5728 5726 5723 5720 5718 5715 5713 5710 5708 5705 5703 5701 5699 5697 5694 5692 5690 5688 5687 5686 5685 5684 5683 5682 5681 5681 5681 5682 5683 5685 5686 5686 5685 5685 5686 5686 5686 5686 5686 5686 5686 5687
5727 5725 5724 5721 5719 5716 5714 5712 5709 5707 5704 5702 5699 5697 5695 5692 5690 5687 5685 5684 5682 5681 5680 5678 5677 5677 5677 5677 5677 5678 5679 5680 5680 5680 5680 5681 5681 5681 5681 5681 5681 5682 5682
5724 5723 5722 5720 5718 5715 5712 5710 5707 5705 5702 5700 5697 5695 5693 5690 5687 5684 5682 5680 5678 5677 5675 5674 5673 5672 5671 5672 5672 5673 5673 5674 5674 5674 5675 5675 5676 5676 5676 5676 5677 5677 5678
5722 5722 5721 5719 5717 5714 5710 5707 5705 5702 5700 5697 5695 5692 5690 5687 5684 5681 5678 5676 5674 5672 5671 5669 5668 5666 5666 5666 5666 5667 5667 5667 5667 5668 5669 5669 5670 5671 5671 5672 5672 5673 5673
5719 5720 5720 5719 5716 5712 5709 5706 5702 5699 5696 5694 5691 5688 5685 5683 5680 5676 5673 5671 5669 5667 5665 5663 5662 5661 5660 5660 5660 5660 5660 5660 5661 5661 5662 5663 5664 5665 5666 5666 5667 5668 5668
5711 5713 5715 5715 5713 5711 5708 5704 5700 5697 5693 5690 5687 5684 5681 5678 5675 5671 5669 5666 5664 5662 5659 5657 5656 5654 5654 5654 5653 5653 5653 5653 5654 5654 5655 5656 5657 5658 5660 5661 5662 5662 5663
5701 5703 5707 5709 5709 5708 5705 5701 5698 5694 5690 5687 5683 5680 5677 5674 5670 5667 5663 5660 5657 5655 5652 5650 5648 5647 5646 5646 5647 5646 5646 5646 5646 5647 5648 5649 5650 5651 5653 5654 5655 5656 5656
5690 5693 5699 5702 5703 5702 5700 5698 5695 5691 5687 5683 5679 5676 5672 5669 5666 5662 5658 5655 5651 5647 5645 5642 5640 5638 5638 5638 5639 5639 5640 5640 5640 5640 5641 5642 5643 5644 5646 5647 5648 5648 5649
5676 5682 5688 5693 5695 5694 5693 5691 5688 5685 5681 5678 5674 5671 5668 5665 5661 5658 5654 5650 5646 5641 5637 5634 5631 5629 5628 5628 5629 5631 5632 5632 5633 5634 5634 5635 5636 5637 5639 5640 5641 5641 5641
5664 5670 5675 5680 5683 5684 5683 5681 5679 5676 5673 5671 5667 5664 5661 5658 5655 5651 5648 5645 5641 5636 5632 5627 5623 5619 5618 5617 5618 5620 5622 5624 5625 5626 5627 5627 5628 5629 5630 5631 5633 5633 5633
5650 5655 5660 5664 5667 5669 5670 5669 5667 5665 5662 5660 5658 5656 5653 5650 5647 5644 5640 5637 5633 5629 5625 5621 5615 5612 5609 5607 5607 5608 5611 5613 5615 5617 5618 5619 5619 5620 5621 5622 5623 5624 5625
5636 5640 5644 5648 5651 5654 5655 5654 5652 5649 5647 5646 5644 5643 5642 5639 5637 5634 5631 5628 5624 5620 5616 5612 5607 5603 5601 5598 5597 5597 5599 5601 5604 5607 5609 5610 5610 5611 5611 5612 5613 5614 5615
5623 5625 5627 5630 5631 5634 5635 5633 5632 5629 5628 5628 5627 5627 5626 5625 5623 5621 5619 5616 5613 5610 5608 5604 5599 5594 5590 5587 5584 5584 5587 5590 5593 5597 5599 5601 5601 5602 5602 5603 5603 5604 5605
5605 5606 5608 5609 5610 5612 5613 5612 5611 5610 5608 5607 5607 5607 5607 5607 5606 5605 5604 5602 5600 5598 5595 5592 5588 5584 5580 5577 5574 5571 5572 5578 5585 5589 5589 5591 5593 5593 5594 5594 5594 5595 5595
5587 5586 5588 5588 5590 5590 5592 5593 5593 5592 5590 5588 5587 5586 5586 5586 5587 5586 5586 5585 5583 5582 5580 5578 5576 5574 5571 5566 5565 5564 5561 5568 5575 5577 5579 5581 5582 5583 5585 5585 5586 5585 5585
5565 5567 5569 5569 5569 5569 5570 5569 5567 5564 5560 5558 5560 5562 5564 5565 5566 5566 5566 5566 5565 5564 5563 5562 5561 5560 5559 5557 5553 5552 5550 5550 5553 5561 5565 5568 5569 5571 5573 5574 5575 5576 5576
5545 5547 5548 5549 5549 5548 5547 5546 5543 5539 5536 5536 5539 5540 5541 5542 5542 5543 5545 5546 5546 5546 5546 5545 5545 5544 5544 5545 5543 5542 5539 5537 5539 5540 5550 5554 5555 5560 5562 5563 5565 5567 5568
5525 5526 5527 5528 5526 5525 5525 5523 5520 5517 5515 5515 5514 5515 5516 5517 5518 5519 5521 5523 5524 5526 5526 5527 5527 5527 5527 5528 5529 5529 5528 5528 5528 5527 5534 5538 5540 5548 5551 5553 5554 5557 5559